Regional Weather Roundup
Issued by NWS Jackson, KY

Home | Current Version | Previous Version | Text Only | Print | Product List | Glossary Off
Versions: 1 2 3 4 5 6 7 8 9 10 11 12 13 14 15 16 17 18 19 20 21 22 23 24 25 26 27 28 29 30 31 32 33 34 35 36 37 38 39 40 41 42 43 44 45 46 47 48 49 50

000
ASUS43 KJKL 270710
RWRJKL

EAST KENTUCKY HOURLY WEATHER ROUNDUP
NATIONAL WEATHER SERVICE JACKSON KY
300 AM EDT FRI MAR 27 2015

NOTE: "FAIR" INDICATES FEW OR NO CLOUDS BELOW 12,000 FEET WITH
NO SIGNIFICANT WEATHER AND/OR OBSTRUCTIONS TO VISIBILITY.

* THESE REPORTS ARE NOT UNDER NWS QUALITY CONTROL AND MAY NOT
  REPORT WEATHER SUCH AS PRECIPITATION AND FOG.

KYZ079-080-083-085-087-088-110-112-115-119-120-270800
...EASTERN KENTUCKY...

CITY           SKY/WX    TMP DP  RH WIND       PRES   REMARKS
JACKSON        CLOUDY    39  36  89 VRB6      29.90F WCI  35
LONDON         CLOUDY    41  35  79 N8        29.92S
SOMERSET*      CLOUDY    37  34  87 N8        29.96S WCI  31
MONTICELLO*    CLOUDY    41  38  89 N12       29.97F
MIDDLESBORO*   CLOUDY    41  38  91 N7        29.91S
HAZARD APT*    CLOUDY    39  39 100 N5        29.90
BLACK MTN*       N/A     30  30 100 N14         N/A  WCI  20
PIKEVILLE APT* CLOUDY    37  37 100 N5        29.89F WCI  34
BIG SANDY*     DRIZZLE   40  39  97 CALM      29.91F
MOREHEAD APT*  CLOUDY    39  36  87 NW5       29.96F
$$

KYZ035-036-041-042-044-050-067-078-099-270800
...CENTRAL KENTUCKY...

CITY           SKY/WX    TMP DP  RH WIND       PRES   REMARKS
MT STERLING*   CLOUDY    37  36  93 N3        29.96F
FLEMING/MASON* PTCLDY    36  34  93 W3        29.96F
DANVILLE*      PTCLDY    34  34 100 NW3       29.96F
RICHMOND*      CLOUDY    37  36  93 NW3       29.95F
LEXINGTON      PTCLDY    35  33  92 NW3       29.96F FOG
FRANKFORT      CLOUDY    37  34  89 CALM      29.96F
$$

KYZ091>093-OHZ055-061-077-WVZ005-015-034-035-042-270800
...SOUTHERN OHIO/WEST VIRGINIA...

CITY           SKY/WX    TMP DP  RH WIND       PRES   REMARKS
COVINGTON      PTCLDY    36  27  69 N12       29.95F WCI  28
COLUMBUS       PTCLDY    32  23  69 NW8       29.95R WCI  25
DAYTON         CLOUDY    34  25  69 NW5       29.97F WCI  30
WILMINGTON     CLEAR     33  24  69 N12       29.94F WCI  24
HUNTINGTON     CLOUDY    40  34  79 NW8       29.92F WCI  34
CHARLESTON     CLOUDY    40  36  86 NW7       29.90F
PINEVILLE*     MIX PCPN  42  42 100 MISG      29.91F
BECKLEY        LGT RAIN  37  35  92 NW8       29.83F WCI  31
BLUEFIELD      FLURRIES  37  33  85 W7        29.84F WCI  32
$$

VAZ002-007-008-TNZ017-027-036-066-071-270800
...SOUTHWEST VIRGINIA/EAST TENNESSEE...

CITY           SKY/WX    TMP DP  RH WIND       PRES   REMARKS
WISE*          DRIZZLE   36  36 100 N8        29.85F WCI  29
JONESVILLE*    CLOUDY    41  39  93 CALM      29.89F
ABINGDON*      DRIZZLE   42  40  92 CALM      29.83F
BRISTOL        CLOUDY    42  38  85 N9        29.85F
KNOXVILLE      LGT RAIN  43  40  89 N9        29.85F
OAK RIDGE      CLOUDY    43  39  86 NE7       29.87F
CROSSVILLE     CLOUDY    38  35  89 N8        29.89S WCI  32
NASHVILLE      MOCLDY    40  35  83 N7        29.98F
$$

...KEY TO REMARKS...
VSB - VISIBILITY IN MILES
WCI - WIND CHILL INDEX
HX  - HEAT INDEX

$$


USA.gov is the U.S. government's official web portal to all federal, state and local government web resources and services.